Time,TemperatureF,DewpointF,PressureIn,WindDirection,WindDirectionDegrees,WindSpeedMPH,WindSpeedGustMPH,Humidity,HourlyPrecipIn,Conditions,Clouds,dailyrainin,SoftwareType,DateUTC
2013-01-24 00:01:00,-90.0,-99.9,30.15,SW,233,0.0,6.0,255,0.00,,,0.00,Wunderground v.1.15,2013-01-24 05:01:00,
2013-01-24 00:05:00,-90.0,-99.9,30.15,SW,226,0.0,6.0,255,0.00,,,0.00,Wunderground v.1.15,2013-01-24 05:05:00,
2013-01-24 00:10:00,-90.0,-99.9,30.15,SW,222,0.0,6.0,255,0.00,,,0.00,Wunderground v.1.15,2013-01-24 05:10:00,
2013-01-24 00:15:00,-90.0,-99.9,30.14,WSW,238,0.0,6.0,255,0.00,,,0.00,Wunderground v.1.15,2013-01-24 05:15:00,
2013-01-24 00:20:00,-90.0,-99.9,30.14,SW,232,0.0,6.0,255,0.00,,,0.00,Wunderground v.1.15,2013-01-24 05:20:00,
2013-01-24 00:25:00,-90.0,-99.9,30.14,SW,235,0.0,6.0,255,0.00,,,0.00,Wunderground v.1.15,2013-01-24 05:25:00,
2013-01-24 00:30:00,-90.0,-99.9,30.13,WSW,240,0.0,6.0,255,0.00,,,0.00,Wunderground v.1.15,2013-01-24 05:30:00,
2013-01-24 00:35:00,-90.0,-99.9,30.13,WSW,251,0.0,6.0,255,0.00,,,0.00,Wunderground v.1.15,2013-01-24 05:35:00,
2013-01-24 00:40:00,-90.0,-99.9,30.13,WSW,253,0.0,6.0,255,0.00,,,0.00,Wunderground v.1.15,2013-01-24 05:40:00,
2013-01-24 00:45:00,-90.0,-99.9,30.13,WSW,237,0.0,6.0,255,0.00,,,0.00,Wunderground v.1.15,2013-01-24 05:45:00,
2013-01-24 00:50:00,-90.0,-99.9,30.13,SW,228,2.0,12.0,255,0.00,,,0.00,Wunderground v.1.15,2013-01-24 05:50:00,
2013-01-24 00:55:00,-90.0,-99.9,30.13,SW,233,10.0,12.0,255,0.00,,,0.00,Wunderground v.1.15,2013-01-24 05:55:00,
2013-01-24 01:00:00,-90.0,-99.9,30.12,WSW,248,15.0,15.0,255,0.00,,,0.00,Wunderground v.1.15,2013-01-24 06:00:00,
2013-01-24 01:10:00,-90.0,-99.9,30.11,SW,233,15.0,16.0,255,0.00,,,0.00,Wunderground v.1.15,2013-01-24 06:10:00,
2013-01-24 01:15:00,-90.0,-99.9,30.11,WSW,248,14.0,16.0,255,0.00,,,0.00,Wunderground v.1.15,2013-01-24 06:15:00,
2013-01-24 01:20:00,-90.0,-99.9,30.10,WSW,239,12.0,17.0,255,0.00,,,0.00,Wunderground v.1.15,2013-01-24 06:20:00,
2013-01-24 01:30:00,-90.0,-99.9,30.10,WSW,252,13.0,13.0,255,0.00,,,0.00,Wunderground v.1.15,2013-01-24 06:30:00,
2013-01-24 01:35:00,-90.0,-99.9,30.10,SW,236,13.0,14.0,255,0.00,,,0.00,Wunderground v.1.15,2013-01-24 06:35:00,
2013-01-24 01:40:00,-90.0,-99.9,30.10,West,260,13.0,15.0,255,0.00,,,0.00,Wunderground v.1.15,2013-01-24 06:40:00,
2013-01-24 01:45:00,-90.0,-99.9,30.10,WSW,255,12.0,15.0,255,0.00,,,0.00,Wunderground v.1.15,2013-01-24 06:45:00,
2013-01-24 01:50:00,-90.0,-99.9,30.10,WSW,240,11.0,12.0,255,0.00,,,0.00,Wunderground v.1.15,2013-01-24 06:50:00,
2013-01-24 01:55:00,-90.0,-99.9,30.09,WSW,253,11.0,12.0,255,0.00,,,0.00,Wunderground v.1.15,2013-01-24 06:55:00,
2013-01-24 02:00:00,-90.0,-99.9,30.08,West,262,11.0,11.0,255,0.00,,,0.00,Wunderground v.1.15,2013-01-24 07:00:00,
2013-01-24 02:05:00,-90.0,-99.9,30.08,West,261,10.0,24.0,255,0.00,,,0.00,Wunderground v.1.15,2013-01-24 07:05:00,
2013-01-24 02:10:00,-90.0,-99.9,30.08,West,262,11.0,11.0,255,0.00,,,0.00,Wunderground v.1.15,2013-01-24 07:10:00,
2013-01-24 02:15:00,-90.0,-99.9,30.08,WSW,254,11.0,12.0,255,0.00,,,0.00,Wunderground v.1.15,2013-01-24 07:15:00,
2013-01-24 02:20:00,-90.0,-99.9,30.08,WSW,257,12.0,24.0,255,0.00,,,0.00,Wunderground v.1.15,2013-01-24 07:20:00,
2013-01-24 02:25:00,-90.0,-99.9,30.08,WSW,245,13.0,24.0,255,0.00,,,0.00,Wunderground v.1.15,2013-01-24 07:25:00,
2013-01-24 02:30:00,-90.0,-99.9,30.08,West,259,12.0,24.0,255,0.00,,,0.00,Wunderground v.1.15,2013-01-24 07:30:00,
2013-01-24 02:35:00,-90.0,-99.9,30.07,WSW,256,12.0,24.0,255,0.00,,,0.00,Wunderground v.1.15,2013-01-24 07:35:00,
2013-01-24 02:40:00,-90.0,-99.9,30.07,West,259,11.0,11.0,255,0.00,,,0.00,Wunderground v.1.15,2013-01-24 07:40:00,
2013-01-24 02:45:00,-90.0,-99.9,30.07,West,259,10.0,24.0,255,0.00,,,0.00,Wunderground v.1.15,2013-01-24 07:45:00,
2013-01-24 02:50:00,-90.0,-99.9,30.07,West,278,9.0,24.0,255,0.00,,,0.00,Wunderground v.1.15,2013-01-24 07:50:00,
2013-01-24 02:55:00,-90.0,-99.9,30.07,West,269,9.0,24.0,255,0.00,,,0.00,Wunderground v.1.15,2013-01-24 07:55:00,
2013-01-24 03:00:00,-90.0,-99.9,30.06,WSW,243,9.0,9.0,255,0.00,,,0.00,Wunderground v.1.15,2013-01-24 08:00:00,
2013-01-24 03:05:00,-90.0,-99.9,30.06,West,262,9.0,12.0,255,0.00,,,0.00,Wunderground v.1.15,2013-01-24 08:05:00,
2013-01-24 03:10:00,-90.0,-99.9,30.06,WSW,237,9.0,9.0,255,0.00,,,0.00,Wunderground v.1.15,2013-01-24 08:10:00,
2013-01-24 03:15:00,-90.0,-99.9,30.06,WSW,252,10.0,11.0,255,0.00,,,0.00,Wunderground v.1.15,2013-01-24 08:15:00,
2013-01-24 03:20:00,-90.0,-99.9,30.05,WSW,257,10.0,10.0,255,0.00,,,0.00,Wunderground v.1.15,2013-01-24 08:20:00,
2013-01-24 03:25:00,-90.0,-99.9,30.05,WSW,258,10.0,11.0,255,0.00,,,0.00,Wunderground v.1.15,2013-01-24 08:25:00,
2013-01-24 03:30:00,-90.0,-99.9,30.05,WSW,255,10.0,19.0,255,0.00,,,0.00,Wunderground v.1.15,2013-01-24 08:30:00,
2013-01-24 03:35:00,-90.0,-99.9,30.05,West,267,12.0,19.0,255,0.00,,,0.00,Wunderground v.1.15,2013-01-24 08:35:00,
2013-01-24 03:40:00,-90.0,-99.9,30.04,West,261,14.0,19.0,255,0.00,,,0.00,Wunderground v.1.15,2013-01-24 08:40:00,
2013-01-24 03:45:00,-90.0,-99.9,30.04,West,273,15.0,19.0,255,0.00,,,0.00,Wunderground v.1.15,2013-01-24 08:45:00,
2013-01-24 03:50:00,-90.0,-99.9,30.04,West,264,15.0,15.0,255,0.00,,,0.00,Wunderground v.1.15,2013-01-24 08:50:00,
2013-01-24 03:55:00,-90.0,-99.9,30.04,West,272,15.0,19.0,255,0.00,,,0.00,Wunderground v.1.15,2013-01-24 08:55:00,
2013-01-24 04:00:00,-90.0,-99.9,30.03,West,273,15.0,15.0,255,0.00,,,0.00,Wunderground v.1.15,2013-01-24 09:00:00,
2013-01-24 04:05:00,-90.0,-99.9,30.03,West,270,14.0,17.0,255,0.00,,,0.00,Wunderground v.1.15,2013-01-24 09:05:00,
2013-01-24 04:10:00,-90.0,-99.9,30.03,West,262,14.0,14.0,255,0.00,,,0.00,Wunderground v.1.15,2013-01-24 09:10:00,
2013-01-24 04:15:00,-90.0,-99.9,30.02,West,278,15.0,19.0,255,0.00,,,0.00,Wunderground v.1.15,2013-01-24 09:15:00,
2013-01-24 04:20:00,-90.0,-99.9,30.02,West,266,15.0,15.0,255,0.00,,,0.00,Wunderground v.1.15,2013-01-24 09:20:00,
2013-01-24 04:25:00,-90.0,-99.9,30.02,WSW,249,14.0,17.0,255,0.00,,,0.00,Wunderground v.1.15,2013-01-24 09:25:00,
2013-01-24 04:30:00,-90.0,-99.9,30.02,West,270,13.0,17.0,255,0.00,,,0.00,Wunderground v.1.15,2013-01-24 09:30:00,
2013-01-24 04:35:00,-90.0,-99.9,30.02,West,270,13.0,17.0,255,0.00,,,0.00,Wunderground v.1.15,2013-01-24 09:35:00,
2013-01-24 04:45:00,-90.0,-99.9,30.02,WSW,255,13.0,17.0,255,0.00,,,0.00,Wunderground v.1.15,2013-01-24 09:45:00,
2013-01-24 04:50:00,-90.0,-99.9,30.02,West,274,13.0,17.0,255,0.00,,,0.00,Wunderground v.1.15,2013-01-24 09:50:00,
2013-01-24 04:55:00,-90.0,-99.9,30.02,West,273,13.0,17.0,255,0.00,,,0.00,Wunderground v.1.15,2013-01-24 09:55:00,
2013-01-24 05:00:00,-90.0,-99.9,30.02,West,260,13.0,21.0,255,0.00,,,0.00,Wunderground v.1.15,2013-01-24 10:00:00,
2013-01-24 05:05:00,-90.0,-99.9,30.02,West,261,13.0,21.0,255,0.00,,,0.00,Wunderground v.1.15,2013-01-24 10:05:00,
2013-01-24 05:10:00,-90.0,-99.9,30.02,West,262,13.0,13.0,255,0.00,,,0.00,Wunderground v.1.15,2013-01-24 10:10:00,
2013-01-24 05:15:00,-90.0,-99.9,30.02,West,275,13.0,21.0,255,0.00,,,0.00,Wunderground v.1.15,2013-01-24 10:15:00,
2013-01-24 05:20:00,-90.0,-99.9,30.02,West,265,12.0,12.0,255,0.00,,,0.00,Wunderground v.1.15,2013-01-24 10:20:00,
2013-01-24 05:25:00,-90.0,-99.9,30.02,West,268,12.0,21.0,255,0.00,,,0.00,Wunderground v.1.15,2013-01-24 10:25:00,
2013-01-24 05:30:00,-90.0,-99.9,30.02,West,273,11.0,21.0,255,0.00,,,0.00,Wunderground v.1.15,2013-01-24 10:30:00,
2013-01-24 05:35:00,-90.0,-99.9,30.02,West,272,12.0,21.0,255,0.00,,,0.00,Wunderground v.1.15,2013-01-24 10:35:00,
2013-01-24 05:40:00,-90.0,-99.9,30.02,West,281,12.0,12.0,255,0.00,,,0.00,Wunderground v.1.15,2013-01-24 10:40:00,
2013-01-24 05:45:00,-90.0,-99.9,30.02,WNW,283,11.0,21.0,255,0.00,,,0.00,Wunderground v.1.15,2013-01-24 10:45:00,
2013-01-24 05:50:00,-90.0,-99.9,30.02,West,270,12.0,12.0,255,0.00,,,0.00,Wunderground v.1.15,2013-01-24 10:50:00,
2013-01-24 05:55:00,-90.0,-99.9,30.02,West,281,12.0,21.0,255,0.00,,,0.00,Wunderground v.1.15,2013-01-24 10:55:00,
2013-01-24 06:00:00,-90.0,-99.9,30.03,WNW,290,12.0,18.0,255,0.00,,,0.00,Wunderground v.1.15,2013-01-24 11:00:00,
2013-01-24 06:05:00,-90.0,-99.9,30.02,West,275,12.0,18.0,255,0.00,,,0.00,Wunderground v.1.15,2013-01-24 11:05:00,
2013-01-24 06:10:00,-90.0,-99.9,30.03,WNW,284,14.0,14.0,255,0.00,,,0.00,Wunderground v.1.15,2013-01-24 11:10:00,
2013-01-24 06:15:00,-90.0,-99.9,30.03,West,264,14.0,18.0,255,0.00,,,0.00,Wunderground v.1.15,2013-01-24 11:15:00,
2013-01-24 06:20:00,-90.0,-99.9,30.03,West,276,14.0,14.0,255,0.00,,,0.00,Wunderground v.1.15,2013-01-24 11:20:00,
2013-01-24 06:25:00,-90.0,-99.9,30.03,WNW,282,13.0,18.0,255,0.00,,,0.00,Wunderground v.1.15,2013-01-24 11:25:00,
2013-01-24 06:30:00,-90.0,-99.9,30.03,West,264,13.0,18.0,255,0.00,,,0.00,Wunderground v.1.15,2013-01-24 11:30:00,
2013-01-24 06:35:00,-90.0,-99.9,30.03,WNW,286,13.0,18.0,255,0.00,,,0.00,Wunderground v.1.15,2013-01-24 11:35:00,
2013-01-24 06:40:00,-90.0,-99.9,30.04,WNW,288,14.0,18.0,255,0.00,,,0.00,Wunderground v.1.15,2013-01-24 11:40:00,
2013-01-24 06:45:00,-90.0,-99.9,30.04,WNW,284,14.0,18.0,255,0.00,,,0.00,Wunderground v.1.15,2013-01-24 11:45:00,
2013-01-24 06:50:00,-90.0,-99.9,30.04,West,266,14.0,18.0,255,0.00,,,0.00,Wunderground v.1.15,2013-01-24 11:50:00,
2013-01-24 06:55:00,-90.0,-99.9,30.04,West,281,14.0,18.0,255,0.00,,,0.00,Wunderground v.1.15,2013-01-24 11:55:00,
2013-01-24 07:00:00,-90.0,-99.9,30.04,WNW,284,13.0,23.0,255,0.00,,,0.00,Wunderground v.1.15,2013-01-24 12:00:00,
2013-01-24 07:05:00,-90.0,-99.9,30.04,WNW,293,13.0,23.0,255,0.00,,,0.00,Wunderground v.1.15,2013-01-24 12:05:00,
2013-01-24 07:10:00,-90.0,-99.9,30.04,West,279,13.0,23.0,255,0.00,,,0.00,Wunderground v.1.15,2013-01-24 12:10:00,
2013-01-24 07:15:00,-90.0,-99.9,30.05,West,274,13.0,23.0,255,0.00,,,0.00,Wunderground v.1.15,2013-01-24 12:15:00,
2013-01-24 07:20:00,-90.0,-99.9,30.04,WSW,250,14.0,14.0,255,0.00,,,0.00,Wunderground v.1.15,2013-01-24 12:20:00,
2013-01-24 07:25:00,-90.0,-99.9,30.05,West,280,14.0,23.0,255,0.00,,,0.00,Wunderground v.1.15,2013-01-24 12:25:00,
2013-01-24 07:30:00,-90.0,-99.9,30.05,WNW,286,13.0,13.0,255,0.00,,,0.00,Wunderground v.1.15,2013-01-24 12:30:00,
2013-01-24 07:35:00,-90.0,-99.9,30.06,West,266,15.0,19.0,255,0.00,,,0.00,Wunderground v.1.15,2013-01-24 12:35:00,
2013-01-24 07:40:00,-90.0,-99.9,30.06,West,280,15.0,23.0,255,0.00,,,0.00,Wunderground v.1.15,2013-01-24 12:40:00,
2013-01-24 07:45:00,-90.0,-99.9,30.06,WNW,288,14.0,23.0,255,0.00,,,0.00,Wunderground v.1.15,2013-01-24 12:45:00,
2013-01-24 07:50:00,-90.0,-99.9,30.06,WNW,286,13.0,23.0,255,0.00,,,0.00,Wunderground v.1.15,2013-01-24 12:50:00,
2013-01-24 07:55:00,-90.0,-99.9,30.07,WNW,283,12.0,23.0,255,0.00,,,0.00,Wunderground v.1.15,2013-01-24 12:55:00,
2013-01-24 08:00:00,-90.0,-99.9,30.07,West,281,13.0,23.0,255,0.00,,,0.00,Wunderground v.1.15,2013-01-24 13:00:00,
2013-01-24 08:10:00,-90.0,-99.9,30.08,WNW,291,12.0,23.0,255,0.00,,,0.00,Wunderground v.1.15,2013-01-24 13:10:00,
2013-01-24 08:15:00,-90.0,-99.9,30.08,WNW,300,13.0,23.0,255,0.00,,,0.00,Wunderground v.1.15,2013-01-24 13:15:00,
2013-01-24 08:20:00,-90.0,-99.9,30.08,West,278,13.0,13.0,255,0.00,,,0.00,Wunderground v.1.15,2013-01-24 13:20:00,
2013-01-24 08:25:00,-90.0,-99.9,30.08,WNW,282,13.0,15.0,255,0.00,,,0.00,Wunderground v.1.15,2013-01-24 13:25:00,
2013-01-24 08:30:00,-90.0,-99.9,30.08,WNW,283,13.0,23.0,255,0.00,,,0.00,Wunderground v.1.15,2013-01-24 13:30:00,
2013-01-24 08:35:00,-90.0,-99.9,30.09,WNW,282,13.0,23.0,255,0.00,,,0.00,Wunderground v.1.15,2013-01-24 13:35:00,
2013-01-24 08:40:00,-90.0,-99.9,30.09,WNW,290,12.0,12.0,255,0.00,,,0.00,Wunderground v.1.15,2013-01-24 13:40:00,
2013-01-24 08:45:00,-90.0,-99.9,30.10,West,279,13.0,13.0,255,0.00,,,0.00,Wunderground v.1.15,2013-01-24 13:45:00,
2013-01-24 08:50:00,-90.0,-99.9,30.10,WNW,290,13.0,13.0,255,0.00,,,0.00,Wunderground v.1.15,2013-01-24 13:50:00,
2013-01-24 08:55:00,-90.0,-99.9,30.11,WNW,297,11.0,23.0,255,0.00,,,0.00,Wunderground v.1.15,2013-01-24 13:55:00,
2013-01-24 09:00:00,-90.0,-99.9,30.11,NNW,335,8.0,8.0,255,0.00,,,0.00,Wunderground v.1.15,2013-01-24 14:00:00,
2013-01-24 09:05:00,-90.0,-99.9,30.12,NNW,328,8.0,20.0,255,0.00,,,0.00,Wunderground v.1.15,2013-01-24 14:05:00,
2013-01-24 09:10:00,-90.0,-99.9,30.13,NW,307,10.0,20.0,255,0.00,,,0.00,Wunderground v.1.15,2013-01-24 14:10:00,
2013-01-24 09:15:00,-90.0,-99.9,30.14,NW,326,11.0,20.0,255,0.00,,,0.00,Wunderground v.1.15,2013-01-24 14:15:00,
2013-01-24 09:20:00,-90.0,-99.9,30.14,NNW,348,13.0,13.0,255,0.00,,,0.00,Wunderground v.1.15,2013-01-24 14:20:00,
2013-01-24 09:25:00,-90.0,-99.9,30.15,North,360,13.0,20.0,255,0.00,,,0.00,Wunderground v.1.15,2013-01-24 14:25:00,
2013-01-24 09:30:00,-90.0,-99.9,30.15,North,359,12.0,12.0,255,0.00,,,0.00,Wunderground v.1.15,2013-01-24 14:30:00,
2013-01-24 09:35:00,-90.0,-99.9,30.16,North,2,12.0,13.0,255,0.00,,,0.00,Wunderground v.1.15,2013-01-24 14:35:00,
2013-01-24 09:40:00,-90.0,-99.9,30.16,North,353,12.0,20.0,255,0.00,,,0.00,Wunderground v.1.15,2013-01-24 14:40:00,
2013-01-24 09:45:00,-90.0,-99.9,30.17,NNE,23,13.0,20.0,255,0.00,,,0.00,Wunderground v.1.15,2013-01-24 14:45:00,
2013-01-24 09:50:00,-90.0,-99.9,30.17,North,360,11.0,20.0,255,0.00,,,0.00,Wunderground v.1.15,2013-01-24 14:50:00,
2013-01-24 09:55:00,-90.0,-99.9,30.17,NE,39,13.0,20.0,255,0.00,,,0.00,Wunderground v.1.15,2013-01-24 14:55:00,
2013-01-24 10:00:00,-90.0,-99.9,30.18,North,11,15.0,24.0,255,0.00,,,0.00,Wunderground v.1.15,2013-01-24 15:00:00,
2013-01-24 10:05:00,-90.0,-99.9,30.18,NNE,13,14.0,24.0,255,0.00,,,0.00,Wunderground v.1.15,2013-01-24 15:05:00,
2013-01-24 10:10:00,-90.0,-99.9,30.18,NE,37,16.0,16.0,255,0.00,,,0.00,Wunderground v.1.15,2013-01-24 15:10:00,
2013-01-24 10:15:00,-90.0,-99.9,30.19,North,352,17.0,17.0,255,0.00,,,0.00,Wunderground v.1.15,2013-01-24 15:15:00,
2013-01-24 10:20:00,-90.0,-99.9,30.18,North,6,16.0,24.0,255,0.00,,,0.00,Wunderground v.1.15,2013-01-24 15:20:00,
2013-01-24 10:25:00,-90.0,-99.9,30.20,North,360,15.0,24.0,255,0.00,,,0.00,Wunderground v.1.15,2013-01-24 15:25:00,
2013-01-24 10:30:00,-90.0,-99.9,30.20,North,360,16.0,16.0,255,0.00,,,0.00,Wunderground v.1.15,2013-01-24 15:30:00,
2013-01-24 10:35:00,-90.0,-99.9,30.21,North,7,14.0,24.0,255,0.00,,,0.00,Wunderground v.1.15,2013-01-24 15:35:00,
2013-01-24 10:40:00,-90.0,-99.9,30.22,NNE,25,13.0,24.0,255,0.00,,,0.00,Wunderground v.1.15,2013-01-24 15:40:00,
2013-01-24 10:45:00,-90.0,-99.9,30.21,North,8,14.0,24.0,255,0.00,,,0.00,Wunderground v.1.15,2013-01-24 15:45:00,
2013-01-24 10:50:00,-90.0,-99.9,30.22,NNE,24,14.0,24.0,255,0.00,,,0.00,Wunderground v.1.15,2013-01-24 15:50:00,
2013-01-24 10:55:00,-90.0,-99.9,30.22,North,11,17.0,24.0,255,0.00,,,0.00,Wunderground v.1.15,2013-01-24 15:55:00,
2013-01-24 11:00:00,-90.0,-99.9,30.22,North,5,17.0,17.0,255,0.00,,,0.00,Wunderground v.1.15,2013-01-24 16:00:00,
2013-01-24 11:10:00,-90.0,-99.9,30.21,NNE,16,16.0,28.0,255,0.00,,,0.00,Wunderground v.1.15,2013-01-24 16:10:00,
2013-01-24 11:15:00,-90.0,-99.9,30.22,NNE,18,15.0,28.0,255,0.00,,,0.00,Wunderground v.1.15,2013-01-24 16:15:00,
2013-01-24 11:20:00,-90.0,-99.9,30.22,North,9,16.0,16.0,255,0.00,,,0.00,Wunderground v.1.15,2013-01-24 16:20:00,
2013-01-24 11:25:00,-90.0,-99.9,30.22,NNE,13,16.0,21.0,255,0.00,,,0.00,Wunderground v.1.15,2013-01-24 16:25:00,
2013-01-24 11:30:00,-90.0,-99.9,30.22,NE,36,16.0,16.0,255,0.00,,,0.00,Wunderground v.1.15,2013-01-24 16:30:00,
2013-01-24 11:35:00,-90.0,-99.9,30.23,NNE,18,16.0,20.0,255,0.00,,,0.00,Wunderground v.1.15,2013-01-24 16:35:00,
2013-01-24 11:40:00,-90.0,-99.9,30.23,NNE,19,16.0,28.0,255,0.00,,,0.00,Wunderground v.1.15,2013-01-24 16:40:00,
2013-01-24 11:45:00,-999.9,-99.9,30.23,North,354,17.0,28.0,255,0.00,,,0.00,Wunderground v.1.15,2013-01-24 16:45:00,
2013-01-24 11:50:00,-90.0,-99.9,30.23,North,359,18.0,28.0,255,0.00,,,0.00,Wunderground v.1.15,2013-01-24 16:50:00,
2013-01-24 11:55:00,-90.0,-99.9,30.23,North,360,15.0,28.0,255,0.00,,,0.00,Wunderground v.1.15,2013-01-24 16:55:00,
2013-01-24 12:00:00,-90.0,-99.9,30.23,NNW,347,13.0,27.0,255,0.00,,,0.00,Wunderground v.1.15,2013-01-24 17:00:00,
2013-01-24 12:05:00,-90.0,-99.9,30.23,NNW,344,13.0,27.0,255,0.00,,,0.00,Wunderground v.1.15,2013-01-24 17:05:00,
2013-01-24 12:10:00,-90.0,-99.9,30.23,NNE,18,12.0,27.0,255,0.00,,,0.00,Wunderground v.1.15,2013-01-24 17:10:00,
2013-01-24 12:15:00,-90.0,-99.9,30.23,NNE,27,13.0,27.0,255,0.00,,,0.00,Wunderground v.1.15,2013-01-24 17:15:00,
2013-01-24 12:20:00,-90.0,-99.9,30.23,North,355,14.0,14.0,255,0.00,,,0.00,Wunderground v.1.15,2013-01-24 17:20:00,
2013-01-24 12:25:00,-90.0,-99.9,30.23,North,358,13.0,17.0,255,0.00,,,0.00,Wunderground v.1.15,2013-01-24 17:25:00,
2013-01-24 12:30:00,-90.0,-99.9,30.24,NW,307,12.0,12.0,255,0.00,,,0.00,Wunderground v.1.15,2013-01-24 17:30:00,
2013-01-24 12:35:00,-90.0,-99.9,30.24,North,358,11.0,27.0,255,0.00,,,0.00,Wunderground v.1.15,2013-01-24 17:35:00,
2013-01-24 12:40:00,-90.0,-99.9,30.24,North,1,13.0,27.0,255,0.00,,,0.00,Wunderground v.1.15,2013-01-24 17:40:00,
2013-01-24 12:45:00,-999.9,-99.9,30.24,North,360,14.0,27.0,255,0.00,,,0.00,Wunderground v.1.15,2013-01-24 17:45:00,
2013-01-24 12:55:00,-999.9,-99.9,30.25,NNE,15,14.0,27.0,255,0.00,,,0.00,Wunderground v.1.15,2013-01-24 17:55:00,
2013-01-24 13:01:00,-999.9,-99.9,30.26,North,359,14.0,14.0,255,0.00,,,0.00,Wunderground v.1.15,2013-01-24 18:01:00,
2013-01-24 13:05:00,-999.9,-99.9,30.26,NNE,15,15.0,19.0,255,0.00,,,0.00,Wunderground v.1.15,2013-01-24 18:05:00,
2013-01-24 13:10:00,-999.9,-99.9,30.26,North,360,17.0,17.0,255,0.00,,,0.00,Wunderground v.1.15,2013-01-24 18:10:00,
2013-01-24 13:15:00,-999.9,-99.9,30.26,North,6,17.0,27.0,255,0.00,,,0.00,Wunderground v.1.15,2013-01-24 18:15:00,
2013-01-24 13:20:00,-999.9,-99.9,30.26,NE,39,16.0,27.0,255,0.00,,,0.00,Wunderground v.1.15,2013-01-24 18:20:00,
2013-01-24 13:25:00,-999.9,-99.9,30.27,NNE,17,15.0,27.0,255,0.00,,,0.00,Wunderground v.1.15,2013-01-24 18:25:00,
2013-01-24 13:30:00,-999.9,-99.9,30.27,NNE,13,16.0,16.0,255,0.00,,,0.00,Wunderground v.1.15,2013-01-24 18:30:00,
2013-01-24 13:35:00,-999.9,-99.9,30.27,North,9,14.0,27.0,255,0.00,,,0.00,Wunderground v.1.15,2013-01-24 18:35:00,
2013-01-24 13:40:00,-999.9,-99.9,30.27,NNE,23,11.0,27.0,255,0.00,,,0.00,Wunderground v.1.15,2013-01-24 18:40:00,
2013-01-24 13:45:00,-999.9,-99.9,30.28,NNE,18,14.0,27.0,255,0.00,,,0.00,Wunderground v.1.15,2013-01-24 18:45:00,
2013-01-24 13:50:00,-999.9,-99.9,30.28,North,1,15.0,15.0,255,0.00,,,0.00,Wunderground v.1.15,2013-01-24 18:50:00,
2013-01-24 13:55:00,-999.9,-99.9,30.29,NNW,348,15.0,27.0,255,0.00,,,0.00,Wunderground v.1.15,2013-01-24 18:55:00,
2013-01-24 14:00:00,-999.9,-99.9,30.30,North,360,14.0,14.0,255,0.00,,,0.00,Wunderground v.1.15,2013-01-24 19:00:00,
2013-01-24 14:05:00,-999.9,-99.9,30.30,NNE,20,13.0,18.0,255,0.00,,,0.00,Wunderground v.1.15,2013-01-24 19:05:00,
2013-01-24 14:10:00,-999.9,-99.9,30.30,North,359,15.0,15.0,255,0.00,,,0.00,Wunderground v.1.15,2013-01-24 19:10:00,
2013-01-24 14:15:00,-999.9,-99.9,30.30,NNE,12,16.0,19.0,255,0.00,,,0.00,Wunderground v.1.15,2013-01-24 19:15:00,
2013-01-24 14:20:00,-999.9,-99.9,30.30,NNE,12,17.0,17.0,255,0.00,,,0.00,Wunderground v.1.15,2013-01-24 19:20:00,
2013-01-24 14:25:00,-999.9,-99.9,30.30,NNE,17,16.0,20.0,255,0.00,,,0.00,Wunderground v.1.15,2013-01-24 19:25:00,
2013-01-24 14:30:00,-999.9,-99.9,30.31,North,359,13.0,13.0,255,0.00,,,0.00,Wunderground v.1.15,2013-01-24 19:30:00,
2013-01-24 14:35:00,-999.9,-99.9,30.31,NNE,18,13.0,17.0,255,0.00,,,0.00,Wunderground v.1.15,2013-01-24 19:35:00,
2013-01-24 14:40:00,-999.9,-99.9,30.32,North,7,14.0,14.0,255,0.00,,,0.00,Wunderground v.1.15,2013-01-24 19:40:00,
2013-01-24 14:45:00,-999.9,-99.9,30.32,North,11,16.0,16.0,255,0.00,,,0.00,Wunderground v.1.15,2013-01-24 19:45:00,
2013-01-24 14:50:00,-999.9,-99.9,30.32,NNE,25,16.0,16.0,255,0.00,,,0.00,Wunderground v.1.15,2013-01-24 19:50:00,
2013-01-24 15:00:00,-999.9,-99.9,30.33,NNE,13,16.0,16.0,255,0.00,,,0.00,Wunderground v.1.15,2013-01-24 20:00:00,
2013-01-24 15:05:00,-999.9,-99.9,30.34,North,8,15.0,31.0,255,0.00,,,0.00,Wunderground v.1.15,2013-01-24 20:05:00,
2013-01-24 15:10:00,-999.9,-99.9,30.33,North,4,14.0,14.0,255,0.00,,,0.00,Wunderground v.1.15,2013-01-24 20:10:00,
2013-01-24 15:15:00,-999.9,-99.9,30.34,NE,34,15.0,15.0,255,0.00,,,0.00,Wunderground v.1.15,2013-01-24 20:15:00,
2013-01-24 15:20:00,-999.9,-99.9,30.35,NNE,27,17.0,17.0,255,0.00,,,0.00,Wunderground v.1.15,2013-01-24 20:20:00,
2013-01-24 15:25:00,-999.9,-99.9,30.36,NNE,28,17.0,27.0,255,0.00,,,0.00,Wunderground v.1.15,2013-01-24 20:25:00,
2013-01-24 15:30:00,-999.9,-99.9,30.35,NNE,21,17.0,17.0,255,0.00,,,0.00,Wunderground v.1.15,2013-01-24 20:30:00,
2013-01-24 15:35:00,-999.9,-99.9,30.36,North,1,15.0,31.0,255,0.00,,,0.00,Wunderground v.1.15,2013-01-24 20:35:00,
2013-01-24 15:40:00,-999.9,-99.9,30.36,NNE,24,13.0,31.0,255,0.00,,,0.00,Wunderground v.1.15,2013-01-24 20:40:00,
2013-01-24 15:45:00,-999.9,-99.9,30.37,North,360,15.0,31.0,255,0.00,,,0.00,Wunderground v.1.15,2013-01-24 20:45:00,
2013-01-24 15:50:00,-999.9,-99.9,30.37,NNE,15,16.0,16.0,255,0.00,,,0.00,Wunderground v.1.15,2013-01-24 20:50:00,
2013-01-24 15:55:00,-999.9,-99.9,30.38,North,4,16.0,31.0,255,0.00,,,0.00,Wunderground v.1.15,2013-01-24 20:55:00,
2013-01-24 16:00:00,-999.9,-99.9,30.38,NNE,20,16.0,27.0,255,0.00,,,0.00,Wunderground v.1.15,2013-01-24 21:00:00,
2013-01-24 16:05:00,-999.9,-99.9,30.38,North,7,16.0,27.0,255,0.00,,,0.00,Wunderground v.1.15,2013-01-24 21:05:00,
2013-01-24 16:10:00,-999.9,-99.9,30.38,North,4,15.0,27.0,255,0.00,,,0.00,Wunderground v.1.15,2013-01-24 21:10:00,
2013-01-24 16:20:00,-999.9,-99.9,30.39,North,7,14.0,14.0,255,0.00,,,0.00,Wunderground v.1.15,2013-01-24 21:20:00,
2013-01-24 16:25:00,-999.9,-99.9,30.40,North,8,14.0,17.0,255,0.00,,,0.00,Wunderground v.1.15,2013-01-24 21:25:00,
2013-01-24 16:30:00,-999.9,-99.9,30.41,North,9,16.0,27.0,255,0.00,,,0.00,Wunderground v.1.15,2013-01-24 21:30:00,
2013-01-24 16:35:00,-999.9,-99.9,30.40,NNE,18,18.0,27.0,255,0.00,,,0.00,Wunderground v.1.15,2013-01-24 21:35:00,
2013-01-24 16:40:00,-999.9,-99.9,30.41,North,360,15.0,15.0,255,0.00,,,0.00,Wunderground v.1.15,2013-01-24 21:40:00,
2013-01-24 16:45:00,-999.9,-99.9,30.42,NE,34,13.0,22.0,255,0.00,,,0.00,Wunderground v.1.15,2013-01-24 21:45:00,
2013-01-24 16:50:00,-999.9,-99.9,30.42,North,8,14.0,27.0,255,0.00,,,0.00,Wunderground v.1.15,2013-01-24 21:50:00,
2013-01-24 16:55:00,-999.9,-99.9,30.42,North,4,15.0,27.0,255,0.00,,,0.00,Wunderground v.1.15,2013-01-24 21:55:00,
2013-01-24 17:01:00,-999.9,-99.9,30.42,NNE,23,17.0,28.0,255,0.00,,,0.00,Wunderground v.1.15,2013-01-24 22:01:00,
2013-01-24 17:10:00,-999.9,-99.9,30.43,NNE,25,14.0,28.0,255,0.00,,,0.00,Wunderground v.1.15,2013-01-24 22:10:00,
2013-01-24 17:15:00,-999.9,-99.9,30.43,NNE,13,15.0,28.0,255,0.00,,,0.00,Wunderground v.1.15,2013-01-24 22:15:00,
2013-01-24 17:20:00,-999.9,-99.9,30.44,NNE,29,18.0,28.0,255,0.00,,,0.00,Wunderground v.1.15,2013-01-24 22:20:00,
2013-01-24 17:25:00,-999.9,-99.9,30.44,North,360,18.0,28.0,255,0.00,,,0.00,Wunderground v.1.15,2013-01-24 22:25:00,
2013-01-24 17:30:00,-999.9,-99.9,30.45,North,5,16.0,28.0,255,0.00,,,0.00,Wunderground v.1.15,2013-01-24 22:30:00,
2013-01-24 17:35:00,-999.9,-99.9,30.45,North,1,15.0,28.0,255,0.00,,,0.00,Wunderground v.1.15,2013-01-24 22:35:00,
2013-01-24 17:40:00,-999.9,-99.9,30.45,North,3,12.0,28.0,255,0.00,,,0.00,Wunderground v.1.15,2013-01-24 22:40:00,
2013-01-24 17:45:00,-999.9,-99.9,30.45,NNE,28,11.0,28.0,255,0.00,,,0.00,Wunderground v.1.15,2013-01-24 22:45:00,
2013-01-24 17:50:00,-999.9,-99.9,30.46,North,11,13.0,28.0,255,0.00,,,0.00,Wunderground v.1.15,2013-01-24 22:50:00,
2013-01-24 17:55:00,-999.9,-99.9,30.46,NNE,16,14.0,28.0,255,0.00,,,0.00,Wunderground v.1.15,2013-01-24 22:55:00,
2013-01-24 18:00:00,-999.9,-99.9,30.47,NNE,27,15.0,28.0,255,0.00,,,0.00,Wunderground v.1.15,2013-01-24 23:00:00,
2013-01-24 18:10:00,-999.9,-99.9,30.47,North,360,17.0,17.0,255,0.00,,,0.00,Wunderground v.1.15,2013-01-24 23:10:00,
2013-01-24 18:15:00,-999.9,-99.9,30.46,NNE,23,16.0,28.0,255,0.00,,,0.00,Wunderground v.1.15,2013-01-24 23:15:00,
2013-01-24 18:20:00,-999.9,-99.9,30.47,North,11,16.0,16.0,255,0.00,,,0.00,Wunderground v.1.15,2013-01-24 23:20:00,
2013-01-24 18:25:00,-999.9,-99.9,30.47,NNE,16,15.0,28.0,255,0.00,,,0.00,Wunderground v.1.15,2013-01-24 23:25:00,
2013-01-24 18:30:00,-999.9,-99.9,30.47,NE,38,14.0,28.0,255,0.00,,,0.00,Wunderground v.1.15,2013-01-24 23:30:00,
2013-01-24 18:35:00,-999.9,-99.9,30.48,NNE,23,15.0,28.0,255,0.00,,,0.00,Wunderground v.1.15,2013-01-24 23:35:00,
2013-01-24 18:40:00,-999.9,-99.9,30.49,North,359,16.0,16.0,255,0.00,,,0.00,Wunderground v.1.15,2013-01-24 23:40:00,
2013-01-24 18:45:00,-999.9,-99.9,30.48,NNE,13,15.0,26.0,255,0.00,,,0.00,Wunderground v.1.15,2013-01-24 23:45:00,
2013-01-24 18:50:00,-999.9,-99.9,30.49,NE,34,15.0,28.0,255,0.00,,,0.00,Wunderground v.1.15,2013-01-24 23:50:00,
2013-01-24 18:55:00,-999.9,-99.9,30.48,NNE,24,17.0,28.0,255,0.00,,,0.00,Wunderground v.1.15,2013-01-24 23:55:00,
2013-01-24 19:00:00,-999.9,-99.9,30.48,NNE,13,14.0,14.0,255,0.00,,,0.00,Wunderground v.1.15,2013-01-25 00:00:00,
2013-01-24 19:05:00,-999.9,-99.9,30.49,NNE,24,13.0,25.0,255,0.00,,,0.00,Wunderground v.1.15,2013-01-25 00:05:00,
2013-01-24 19:10:00,-999.9,-99.9,30.49,NNE,32,14.0,14.0,255,0.00,,,0.00,Wunderground v.1.15,2013-01-25 00:10:00,
2013-01-24 19:15:00,-999.9,-99.9,30.50,NNE,23,13.0,25.0,255,0.00,,,0.00,Wunderground v.1.15,2013-01-25 00:15:00,
2013-01-24 19:20:00,-999.9,-99.9,30.50,NNE,20,13.0,25.0,255,0.00,,,0.00,Wunderground v.1.15,2013-01-25 00:20:00,
2013-01-24 19:25:00,-999.9,-99.9,30.50,NE,50,13.0,25.0,255,0.00,,,0.00,Wunderground v.1.15,2013-01-25 00:25:00,
2013-01-24 19:30:00,-999.9,-99.9,30.49,NNE,33,13.0,13.0,255,0.00,,,0.00,Wunderground v.1.15,2013-01-25 00:30:00,
2013-01-24 19:35:00,-999.9,-99.9,30.49,NNE,29,13.0,25.0,255,0.00,,,0.00,Wunderground v.1.15,2013-01-25 00:35:00,
2013-01-24 19:40:00,-999.9,-99.9,30.50,NNE,19,13.0,13.0,255,0.00,,,0.00,Wunderground v.1.15,2013-01-25 00:40:00,
2013-01-24 19:45:00,-999.9,-99.9,30.50,NNE,31,13.0,25.0,255,0.00,,,0.00,Wunderground v.1.15,2013-01-25 00:45:00,
2013-01-24 19:50:00,-999.9,-99.9,30.51,NNE,25,14.0,25.0,255,0.00,,,0.00,Wunderground v.1.15,2013-01-25 00:50:00,
2013-01-24 19:55:00,-999.9,-99.9,30.50,NNE,13,14.0,25.0,255,0.00,,,0.00,Wunderground v.1.15,2013-01-25 00:55:00,
2013-01-24 20:00:00,-999.9,-99.9,30.50,NE,48,16.0,16.0,255,0.00,,,0.00,Wunderground v.1.15,2013-01-25 01:00:00,
2013-01-24 20:10:00,-999.9,-99.9,30.51,NNE,24,13.0,13.0,255,0.00,,,0.00,Wunderground v.1.15,2013-01-25 01:10:00,
2013-01-24 20:15:00,-999.9,-99.9,30.51,North,10,13.0,16.0,255,0.00,,,0.00,Wunderground v.1.15,2013-01-25 01:15:00,
2013-01-24 20:20:00,-999.9,-99.9,30.51,NNE,23,14.0,20.0,255,0.00,,,0.00,Wunderground v.1.15,2013-01-25 01:20:00,
2013-01-24 20:25:00,-999.9,-99.9,30.51,NNE,24,14.0,20.0,255,0.00,,,0.00,Wunderground v.1.15,2013-01-25 01:25:00,
2013-01-24 20:30:00,-999.9,-99.9,30.51,NNE,18,14.0,14.0,255,0.00,,,0.00,Wunderground v.1.15,2013-01-25 01:30:00,
2013-01-24 20:35:00,-999.9,-99.9,30.51,NNE,16,13.0,20.0,255,0.00,,,0.00,Wunderground v.1.15,2013-01-25 01:35:00,
2013-01-24 20:40:00,-999.9,-99.9,30.51,North,360,12.0,12.0,255,0.00,,,0.00,Wunderground v.1.15,2013-01-25 01:40:00,
2013-01-24 20:45:00,-999.9,-99.9,30.52,NNE,28,10.0,20.0,255,0.00,,,0.00,Wunderground v.1.15,2013-01-25 01:45:00,
2013-01-24 20:50:00,-999.9,-99.9,30.51,NNE,27,11.0,20.0,255,0.00,,,0.00,Wunderground v.1.15,2013-01-25 01:50:00,
2013-01-24 20:55:00,-999.9,-99.9,30.52,NE,46,14.0,20.0,255,0.00,,,0.00,Wunderground v.1.15,2013-01-25 01:55:00,
2013-01-24 21:00:00,-999.9,-99.9,30.53,NNE,29,14.0,21.0,255,0.00,,,0.00,Wunderground v.1.15,2013-01-25 02:00:00,
2013-01-24 21:10:00,-999.9,-99.9,30.52,NNE,32,13.0,13.0,255,0.00,,,0.00,Wunderground v.1.15,2013-01-25 02:10:00,
2013-01-24 21:15:00,-999.9,-99.9,30.53,North,6,13.0,17.0,255,0.00,,,0.00,Wunderground v.1.15,2013-01-25 02:15:00,
2013-01-24 21:20:00,-999.9,-99.9,30.52,NNE,14,12.0,21.0,255,0.00,,,0.00,Wunderground v.1.15,2013-01-25 02:20:00,
2013-01-24 21:25:00,-999.9,-99.9,30.53,NNE,15,12.0,21.0,255,0.00,,,0.00,Wunderground v.1.15,2013-01-25 02:25:00,
2013-01-24 21:30:00,-999.9,-99.9,30.53,NNE,18,12.0,21.0,255,0.00,,,0.00,Wunderground v.1.15,2013-01-25 02:30:00,
2013-01-24 21:35:00,-999.9,-99.9,30.53,North,359,11.0,21.0,255,0.00,,,0.00,Wunderground v.1.15,2013-01-25 02:35:00,
2013-01-24 21:40:00,-999.9,-99.9,30.53,NNE,32,11.0,21.0,255,0.00,,,0.00,Wunderground v.1.15,2013-01-25 02:40:00,
2013-01-24 21:45:00,-999.9,-99.9,30.53,NE,35,11.0,21.0,255,0.00,,,0.00,Wunderground v.1.15,2013-01-25 02:45:00,
2013-01-24 21:50:00,-999.9,-99.9,30.53,NNE,33,10.0,21.0,255,0.00,,,0.00,Wunderground v.1.15,2013-01-25 02:50:00,
2013-01-24 21:55:00,-999.9,-99.9,30.53,NE,41,11.0,21.0,255,0.00,,,0.00,Wunderground v.1.15,2013-01-25 02:55:00,
2013-01-24 22:00:00,-999.9,-99.9,30.54,North,6,11.0,19.0,255,0.00,,,0.00,Wunderground v.1.15,2013-01-25 03:00:00,
2013-01-24 22:05:00,-999.9,-99.9,30.53,NNE,30,11.0,19.0,255,0.00,,,0.00,Wunderground v.1.15,2013-01-25 03:05:00,
2013-01-24 22:10:00,-999.9,-99.9,30.53,NNE,27,12.0,19.0,255,0.00,,,0.00,Wunderground v.1.15,2013-01-25 03:10:00,
2013-01-24 22:15:00,-999.9,-99.9,30.53,NNE,30,14.0,19.0,255,0.00,,,0.00,Wunderground v.1.15,2013-01-25 03:15:00,
2013-01-24 22:20:00,-999.9,-99.9,30.53,NE,46,14.0,14.0,255,0.00,,,0.00,Wunderground v.1.15,2013-01-25 03:20:00,
2013-01-24 22:25:00,-999.9,-99.9,30.52,NNE,25,13.0,19.0,255,0.00,,,0.00,Wunderground v.1.15,2013-01-25 03:25:00,
2013-01-24 22:30:00,-999.9,-99.9,30.52,NE,52,11.0,11.0,255,0.00,,,0.00,Wunderground v.1.15,2013-01-25 03:30:00,
2013-01-24 22:35:00,-999.9,-99.9,30.53,NE,37,8.0,19.0,255,0.00,,,0.00,Wunderground v.1.15,2013-01-25 03:35:00,
2013-01-24 22:40:00,-999.9,-99.9,30.53,NE,46,7.0,19.0,255,0.00,,,0.00,Wunderground v.1.15,2013-01-25 03:40:00,
2013-01-24 22:45:00,-999.9,-99.9,30.53,NE,51,7.0,19.0,255,0.00,,,0.00,Wunderground v.1.15,2013-01-25 03:45:00,
2013-01-24 22:50:00,-999.9,-99.9,30.53,NE,42,8.0,8.0,255,0.00,,,0.00,Wunderground v.1.15,2013-01-25 03:50:00,
2013-01-24 22:55:00,-999.9,-99.9,30.53,NE,53,8.0,19.0,255,0.00,,,0.00,Wunderground v.1.15,2013-01-25 03:55:00,
2013-01-24 23:00:00,-999.9,-99.9,30.54,NE,37,8.0,20.0,255,0.00,,,0.00,Wunderground v.1.15,2013-01-25 04:00:00,
2013-01-24 23:05:00,-999.9,-99.9,30.54,NNE,33,7.0,20.0,255,0.00,,,0.00,Wunderground v.1.15,2013-01-25 04:05:00,
2013-01-24 23:10:00,-999.9,-99.9,30.53,NE,49,8.0,20.0,255,0.00,,,0.00,Wunderground v.1.15,2013-01-25 04:10:00,
2013-01-24 23:15:00,-999.9,-99.9,30.54,NE,56,8.0,20.0,255,0.00,,,0.00,Wunderground v.1.15,2013-01-25 04:15:00,
2013-01-24 23:20:00,-999.9,-99.9,30.54,NE,41,6.0,6.0,255,0.00,,,0.00,Wunderground v.1.15,2013-01-25 04:20:00,
2013-01-24 23:25:00,-999.9,-99.9,30.54,NNE,21,6.0,10.0,255,0.00,,,0.00,Wunderground v.1.15,2013-01-25 04:25:00,
2013-01-24 23:30:00,-999.9,-99.9,30.54,NNE,15,6.0,20.0,255,0.00,,,0.00,Wunderground v.1.15,2013-01-25 04:30:00,
2013-01-24 23:35:00,-999.9,-99.9,30.54,NE,43,7.0,20.0,255,0.00,,,0.00,Wunderground v.1.15,2013-01-25 04:35:00,
2013-01-24 23:40:00,-999.9,-99.9,30.54,NNE,30,7.0,20.0,255,0.00,,,0.00,Wunderground v.1.15,2013-01-25 04:40:00,
2013-01-24 23:45:00,-999.9,-99.9,30.54,NNE,19,8.0,20.0,255,0.00,,,0.00,Wunderground v.1.15,2013-01-25 04:45:00,
2013-01-24 23:50:00,-999.9,-99.9,30.54,NE,45,8.0,20.0,255,0.00,,,0.00,Wunderground v.1.15,2013-01-25 04:50:00,
2013-01-24 23:55:00,-999.9,-99.9,30.54,NE,46,7.0,20.0,255,0.00,,,0.00,Wunderground v.1.15,2013-01-25 04:55:00,